Zurück zum Katalog

SL-8 DEB

AktivLEO
NORAD 37886·DEBRIS·🇷🇺 Russia

Gestartet Dec 17, 1971 von Plesetsk Cosmodrome

Loading…

Nächste Überflüge (nächste 24 Stunden)

TLE

AlterndSource: Space-Track

Epoche: Sep 11, 2026, 12:43 UTC

1 37886U 71114E   26254.53017407  .00000097  00000-0  39455-4 0  9998
2 37886  74.0298 347.7931 0024567 310.4359  49.4652 14.39806869693694

Verfolge SL-8 DEB in Echtzeit mit AllMySat

Download on the App Store